MDT,Max TemperatureF,Mean TemperatureF,Min TemperatureF,Max Dew PointF,MeanDew PointF,Min DewpointF,Max Humidity, Mean Humidity, Min Humidity, Max Sea Level PressureIn, Mean Sea Level PressureIn, Min Sea Level PressureIn, Max VisibilityMiles, Mean VisibilityMiles, Min VisibilityMiles, Max Wind SpeedMPH, Mean Wind SpeedMPH, Max Gust SpeedMPH,PrecipitationIn, CloudCover, Events, WindDirDegrees
2014-6-1,82,62,42,34,19,-2,60,32,4,29.88,29.84,29.79,10,10,10,29,9,45,0.00,0,,296
2014-6-2,85,60,35,25,15,-2,52,28,4,29.98,29.92,29.87,10,10,10,18,6,26,0.00,0,,22
2014-6-3,84,65,45,29,24,15,45,27,9,29.94,29.87,29.81,10,10,10,23,7,30,0.00,0,,324
2014-6-4,84,60,35,27,13,-6,52,28,3,29.92,29.86,29.80,10,10,10,24,8,31,0.00,0,,324
2014-6-5,85,61,36,20,7,-14,47,25,2,29.90,29.81,29.75,10,10,10,20,5,26,0.00,0,,340
2014-6-6,86,60,34,22,9,-6,37,20,3,29.83,29.78,29.72,10,10,10,23,6,28,0.00,0,,338
2014-6-7,88,64,39,33,19,2,50,27,4,29.95,29.78,29.70,10,10,10,24,8,31,0.00,0,,142
2014-6-8,78,61,44,39,30,19,65,39,12,30.06,29.84,29.75,10,10,10,38,13,49,0.00,1,Thunderstorm,347
2014-6-9,81,58,34,27,19,9,59,33,7,30.05,29.94,29.83,10,10,10,21,8,33,0.00,0,,304
2014-6-10,87,61,35,27,19,9,52,29,6,30.10,29.90,29.78,10,10,10,25,6,33,0.00,0,,295
2014-6-11,86,66,45,32,20,6,49,27,5,30.04,29.80,29.73,10,10,10,28,9,37,0.00,0,,305
2014-6-12,85,64,43,32,24,11,49,28,6,29.94,29.88,29.82,10,10,10,22,6,29,0.00,0,,325
2014-6-13,85,64,42,35,28,23,58,35,11,30.07,29.83,29.65,10,10,10,31,10,39,0.00,0,,264
2014-6-14,79,60,40,29,17,3,49,28,6,29.80,29.72,29.62,10,10,10,37,12,48,0.00,0,,310
2014-6-15,80,56,32,24,10,-1,51,28,5,29.90,29.82,29.71,10,10,10,23,9,34,0.00,1,,235
2014-6-16,80,58,36,20,10,2,41,23,5,29.88,29.81,29.75,10,10,10,33,12,43,0.00,0,,243
2014-6-17,81,61,41,28,22,10,42,26,10,29.90,29.80,29.73,10,10,5,33,12,40,0.00,0,,242
2014-6-18,77,60,42,33,27,19,57,36,15,29.90,29.82,29.76,10,10,10,32,10,45,T,1,,275
2014-6-19,80,57,34,27,18,9,69,38,7,30.03,30.00,29.90,10,10,10,22,7,32,0.00,0,,267
2014-6-20,86,61,36,25,16,8,48,27,6,30.08,29.99,29.89,10,10,10,20,6,25,0.00,0,,352
2014-6-21,85,64,43,38,23,13,49,29,8,30.13,29.90,29.82,10,10,10,24,7,31,0.00,0,,326
2014-6-22,87,66,44,30,23,15,53,31,8,29.92,29.86,29.81,10,10,10,23,6,30,0.00,0,,298
2014-6-23,87,65,43,30,21,7,49,27,5,30.19,29.91,29.84,10,10,10,20,6,26,0.00,0,,50
2014-6-24,87,65,43,27,16,5,49,27,5,30.13,29.91,29.82,10,10,10,18,6,24,0.00,0,,18
2014-6-25,87,63,39,26,18,8,51,29,6,29.95,29.88,29.78,10,10,10,20,6,28,0.00,0,,85
2014-6-26,86,64,42,27,19,14,43,26,8,29.90,29.79,29.66,10,10,10,21,7,26,0.00,0,,244
2014-6-27,81,67,53,34,28,21,45,30,15,29.98,29.69,29.63,10,10,10,26,12,34,0.00,2,,286
2014-6-28,84,63,42,35,27,18,62,36,9,30.08,29.84,29.73,10,10,10,32,9,41,0.00,0,,285
2014-6-29,92,70,47,32,27,22,50,30,9,30.11,29.90,29.83,10,10,10,25,7,31,0.00,0,,309
2014-6-30,93,70,47,35,27,20,48,28,8,29.89,29.82,29.75,10,10,10,25,10,34,0.00,0,,337